Location: Beneden-Haastrecht
(52.0012°N, 4.7557°E)
Time: 14:51:10
(UTC+00:00)

Cosmos 1241 Rocket - Pass Details

Date: 24 October 2020
Orbit: 929 x 1018 km, 65.8° (Epoch: 28 November)

Event Time Altitude Azimuth Distance (km) Brightness Sun altitude
Rises 17:32:22 0° 212° (SSW) 3,627 8.1 -10.6°
Reaches altitude 10° 17:34:53 10° 211° (SSW) 2,697 7.4 -11.0°
Maximum altitude 17:41:12 78° 126° (SE) 1,008 4.5 -12.0°
Drops below altitude 10° 17:47:42 10° 42° (NE) 2,775 6.5 -13.0°
Enters shadow 17:48:51 - 42° (NE) 3,197 6.8 -13.1°
